Location: Cuignet
(49.7525°N, 1.6550°E)
Time: 06:00:33
(UTC+00:00)

Daily predictions for brighter satellites

Satellite Brightness Start Highest point End
(mag) Time Altitude Azimuth Time Altitude Azimuth Time Altitude Azimuth
NOSS 3-1 (C) 4.4 19:20:33 10° NW 19:26:53 48° NE 19:34:49 10° ESE
SPOT 5 2.7 19:24:17 10° SSE 19:28:47 89° SW 19:33:10 10° NNW
NOSS 3-4 (A) 3.3 19:24:06 10° SW 19:29:24 86° NW 19:35:21 10° NE
NOSS 3-4 (C) 3.3 19:24:37 10° SW 19:29:57 87° NW 19:35:55 10° NE
Cosmos 546 4.5 19:26:46 10° WSW 19:30:25 82° SSE 19:34:05 10° ENE
Cosmos 1656 Rocket 3.8 19:25:23 10° NNW 19:30:50 65° ENE 19:36:19 10° SE
Cosmos 1025 Rocket 3.8 19:27:38 10° N 19:31:33 34° ENE 19:35:28 10° SE
Helios 1A Rocket 2.9 19:29:48 10° NNE 19:32:48 35° E 19:35:45 10° SSE
Cosmos 2242 Rocket 3.6 19:31:19 10° N 19:35:48 81° E 19:40:12 10° SSE
Cosmos 1733 Rocket 3.0 19:32:20 10° S 19:36:40 66° E 19:41:03 10° NNE
CZ-4B R/B 3.7 19:32:54 10° SSE 19:36:40 87° ENE 19:40:36 10° NNW
PAYLOAD B 4.4 19:31:27 10° SSE 19:36:50 61° ENE 19:42:16 10° N
Terra 2.2 19:33:34 10° SE 19:38:03 47° ENE 19:42:33 10° N
BREEZE-M DEB (TANK) 2.0 19:35:36 10° W 19:38:04 79° S 19:43:01 10° ESE
SJ-6B 4.5 19:35:23 10° SSW 19:38:41 32° W 19:41:58 10° NNW
IRAS Rocket 4.3 19:35:48 10° SSE 19:41:17 85° WSW 19:46:48 10° NNW
Resurs 01 Rocket 4.1 19:39:15 10° SSW 19:42:46 23° W 19:46:19 10° NW
Cosmos 1821 Rocket 4.0 19:37:06 10° S 19:43:20 70° E 19:49:41 10° NNE
Cosmos 2237 Rocket 2.4 19:38:32 10° SSW 19:44:14 80° WNW 19:49:59 10° NNE
Meteor 2-15 4.5 19:39:11 10° S 19:45:15 87° E 19:51:25 10° N
Cosmos 1980 4.1 19:40:35 10° SW 19:46:13 72° WNW 19:51:53 10° NNE
Cosmos 2218 Rocket 4.1 19:43:14 10° SSW 19:49:22 82° W 19:55:35 10° N
CSL-04 Rocket 4.1 19:44:29 10° S 19:50:01 68° WSW 19:55:34 10° NNW
Cosmos 1346 Rocket 2.7 19:47:51 10° N 19:51:24 53° ENE 19:54:56 10° SSE
BREEZE-M DEB (TANK) 2.1 19:49:45 10° W 19:52:02 86° S 19:56:11 10° E
COSMOS 2455 4.3 19:47:24 10° NNW 19:52:29 27° NNE 19:57:32 10° E
Meteor 2-15 Rocket 4.4 19:46:41 10° S 19:52:43 74° E 19:58:49 10° NNE
Meteor 2-16 Rocket 4.5 19:51:20 10° N 19:57:28 66° ENE 20:03:32 10° SSE
SL-4 R/B 3.6 19:55:50 10° SSE 19:57:34 13° SE 19:57:34 13° SE
Cosmos 1400 Rocket 2.6 19:54:34 10° SSW 19:58:10 85° WNW 20:01:49 10° N
Cosmos 1602 3.5 19:56:28 10° NNE 19:58:31 28° ENE 19:59:39 18° ESE
Cosmos 1812 0.5 19:57:35 10° S 19:59:15 84° WNW 20:00:55 10° N
Cosmos 1943 Rocket 4.4 19:56:10 10° NW 20:00:29 23° WSW 20:04:46 10° SSW
Meteor 1-31 Rocket 3.4 19:57:54 10° S 20:01:19 49° W 20:04:46 10° NNW
USA 59 Rocket 1.0 19:59:42 10° WNW 20:02:54 35° SW 20:06:59 10° SSE
ASTEX 1 3.8 19:59:47 10° SSE 20:04:24 44° ENE 20:09:05 10° N
Cosmos 2297 4.0 20:00:22 10° NNW 20:06:02 55° NE 20:10:44 15° SE
Feng Yun 1-1 Rocket 4.4 20:01:55 10° S 20:07:24 75° WSW 20:12:49 10° NNW
Cosmos 1869 4.1 20:06:01 15° SE 20:08:07 26° E 20:11:09 10° NNE
Cosmos 1315 Rocket 4.3 20:08:55 15° ESE 20:09:47 16° E 20:12:09 10° NE
Cosmos 2369 Rocket 2.3 20:04:51 10° NNW 20:10:26 64° ENE 20:15:00 15° SE
ADEOS 3.6 20:07:11 10° SSE 20:12:24 88° ENE 20:17:40 10° NNW
SL-08 R/B 3.5 20:09:14 10° NNE 20:14:04 54° E 20:18:51 10° S
USA 186 1.9 20:14:08 25° ESE 20:14:48 31° ENE 20:16:58 10° N
Lacrosse 5 rocket 2.7 20:13:48 10° NW 20:16:27 23° N 20:19:05 10° ENE
RESURS DK-1 3.6 20:13:12 10° SW 20:16:58 43° NW 20:20:47 10° NNE
Cosmos 2221 Rocket 3.5 20:14:28 10° N 20:18:53 70° E 20:22:40 14° SSE
YAOGAN 11 4.5 20:15:18 10° NNE 20:19:21 40° E 20:23:05 12° SSE
USA 234 3.4 20:13:30 10° ENE 20:19:52 51° SE 20:26:12 10° SSW
Cosmos 2285 Rocket 4.1 20:14:33 10° S 20:20:43 56° ESE 20:26:54 10° NNE
SKYMED 3 4.2 20:18:12 10° NNE 20:22:05 76° ESE 20:25:59 10° S
Cosmos 405 Rocket 3.1 20:20:56 10° N 20:23:35 29° ENE 20:24:26 25° ESE
NOSS 3-1 (A) 4.4 20:20:11 10° NW 20:26:41 51° NE 20:33:20 16° ESE
Cosmos 1943 4.0 20:23:23 13° SSE 20:27:38 30° ESE 20:32:27 10° NE
Cosmos 921 Rocket 4.3 20:24:08 10° N 20:27:58 28° ENE 20:30:06 19° ESE
Molniya-1 3.4 20:25:42 10° SSW 20:28:20 55° ESE 20:34:02 10° NE
CZ-4B R/B 3.5 20:27:34 23° ESE 20:28:52 30° ENE 20:31:52 10° N
CZ-4B R/B 3.6 20:24:30 10° S 20:30:05 67° WSW 20:35:45 10° NNW
SL-8 R/B 3.7 20:27:27 10° WSW 20:32:06 58° SSE 20:36:05 14° E
SL-08 R/B 4.5 20:26:10 10° N 20:32:24 79° E 20:38:00 13° SSE
Cosmos 1975 Rocket 3.8 20:29:55 10° N 20:34:02 36° ENE 20:35:59 24° ESE
Cosmos 1356 Rocket 4.5 20:36:34 23° ESE 20:37:11 24° E 20:40:27 10° NE
ERS-1 Rocket 3.9 20:35:08 10° S 20:39:55 46° W 20:44:45 10° NNW
Cosmos 2263 4.2 20:35:55 10° NNW 20:41:36 81° ENE 20:45:14 23° SSE
Cosmos 2292 Rocket 4.2 20:39:53 10° NNW 20:44:02 46° W 20:47:05 12° SSW
CZ-2C R/B 3.3 20:44:39 25° ENE 20:44:47 25° ENE 20:47:14 10° N
Okean-O 2.6 20:44:32 20° S 20:47:34 79° WSW 20:51:59 10° NNW
Cosmos 2298 Rocket 4.0 20:44:17 10° SSW 20:49:35 87° ESE 20:54:56 10° NNE
Cosmos 44 3.6 20:45:47 10° SW 20:50:53 77° NW 20:56:16 10° NE
Cosmos 1908 Rocket 3.7 20:46:40 10° SSW 20:50:59 72° WNW 20:55:18 10° N
Okean O Rocket 1.9 20:53:06 19° S 20:56:04 62° WSW 21:00:22 10° NNW
CZ-4B R/B 3.4 20:55:25 30° SE 20:57:41 62° ENE 21:02:22 10° N
CZ-4 R/B 4.0 20:57:24 10° WSW 20:59:26 14° W 21:01:26 10° WNW
Ariane Rocket 3.2 20:57:13 30° SE 20:59:34 57° ENE 21:04:31 10° N
SL-16 R/B 2.5 20:54:39 10° SW 21:00:19 72° WNW 21:06:01 10° NNE
Geosat 3.9 20:55:34 10° NNE 21:00:37 84° ESE 21:05:37 10° SSW
Cosmos 1782 Rocket 3.4 20:58:38 24° S 21:01:10 76° E 21:05:29 10° NNE
Cosmos 1934 Rocket 4.0 20:55:55 10° S 21:02:11 85° W 21:08:24 10° N
Spot 2 Rocket 4.1 21:03:19 17° S 21:07:05 53° W 21:12:01 10° NNW
USA 245 4.0 21:05:18 29° SSE 21:07:54 88° WSW 21:13:32 10° NNW
Cosmos 1269 Rocket 4.0 21:02:36 10° NNW 21:07:55 84° ENE 21:10:20 33° SSE
ATLAS 5 CENTAUR R/B 2.6 21:05:26 10° NNW 21:09:03 34° NE 21:11:03 23° E
Cosmos 1140 Rocket 3.4 21:05:19 10° NNW 21:10:29 87° WSW 21:12:46 34° SSE
Terra 3.8 21:12:00 10° SSW 21:15:48 24° W 21:19:36 10° NW
NOSS 3-1 (C) 4.3 21:11:06 10° NW 21:18:02 62° SW 21:23:02 26° SSE
Cosmos 1862 2.8 21:18:57 10° N 21:22:34 85° E 21:22:56 70° SSE
Cosmos 1447 Rocket 4.4 21:18:37 10° N 21:24:55 76° E 21:27:42 35° SSE
Cosmos 2058 2.6 21:23:00 10° N 21:26:57 85° E 21:27:31 63° SSE
Cosmos 407 Rocket 3.5 21:22:19 10° NNW 21:27:26 67° ENE 21:28:57 44° SE
Cosmos 1300 Rocket 4.4 21:25:04 14° SSW 21:28:29 47° WNW 21:32:39 10° N
Cosmos 1174 3.9 21:27:34 10° NW 21:30:21 45° WSW 21:30:21 45° WSW
Cosmos 371 Rocket 3.5 21:27:20 10° NNW 21:32:08 59° ENE 21:33:16 46° ESE
SL-4 R/B 4.0 21:30:33 10° SW 21:31:14 15° SW 21:31:14 15° SW
ATLAS 2AS CENTAUR R/B 4.4 21:38:07 15° E 21:38:07 15° E 21:40:20 10° ENE
COSMOS 2455 2.8 21:33:08 10° NW 21:39:11 89° NE 21:41:17 43° SE
SJ 16-02 1.7 21:36:00 10° NNW 21:40:09 47° ENE 21:40:32 45° E
Cosmos 2251 Rocket 4.1 21:36:53 10° NNW 21:42:03 47° ENE 21:43:27 38° E
Cosmos 1315 Rocket 3.6 21:43:33 29° SW 21:44:59 44° WNW 21:48:36 10° N
Cosmos 1536 Rocket 3.8 21:41:11 10° N 21:45:22 49° ENE 21:45:29 48° E
Gbstr 26 Del rocket 4.0 21:45:34 10° SW 21:48:40 35° SW 21:48:40 35° SW
SPOT 3 Rocket 4.3 21:48:49 28° SSW 21:51:04 44° W 21:56:03 10° NNW
Cosmos 1605 Rocket 4.3 21:47:33 20° SSW 21:51:47 64° WNW 21:57:55 10° N
Lacrosse 5 rocket 1.7 21:50:22 10° NW 21:52:47 45° NNW 21:52:47 45° NNW
Cosmos 2369 Rocket 3.9 21:49:34 10° NW 21:53:58 24° WSW 21:56:46 17° SW
SeaSat 1 3.4 21:56:42 31° E 21:58:03 37° NE 22:02:32 10° NNW
USA 234 3.5 21:56:33 10° ENE 22:03:04 71° NNW 22:09:35 10° WSW
Cosmos 1697 Rocket 4.1 21:58:15 10° NNW 22:03:11 30° NE 22:05:25 23° E
Cosmos 2173 Rocket 4.0 22:03:21 51° SE 22:04:39 62° E 22:10:41 10° NNE
Cosmos 921 Rocket 4.0 22:02:03 10° NW 22:06:07 37° WSW 22:06:41 36° WSW
Helios 1B rocket 3.1 22:09:10 40° NNE 22:09:10 40° NNE 22:11:45 10° N
Cosmos 1603 3.6 22:07:59 52° S 22:09:24 78° ESE 22:15:06 10° NNE
Cosmos 1943 3.8 22:05:47 10° SW 22:11:20 55° NW 22:16:56 10° NNE
Meteor 2-3 Rocket 3.6 22:07:30 10° N 22:13:08 75° ENE 22:14:03 61° SE
SL-8 R/B 3.6 22:09:31 10° W 22:13:50 70° SW 22:13:50 70° SW
Cosmos 2151 Rocket 3.5 22:17:04 79° NE 22:17:04 79° NE 22:21:14 10° N
Okean 1 Rocket 3.5 22:17:47 50° NE 22:17:47 50° NE 22:21:22 10° NNE
NOSS 3-1 (A) 4.3 22:10:50 10° NW 22:17:50 58° SW 22:20:42 41° S
Helios 1A 3.3 22:18:53 10° NNE 22:22:03 55° NNE 22:22:03 55° NNE
Cosmos 1980 Rocket 4.0 22:19:06 10° NNW 22:23:36 23° NE 22:26:39 16° E
Okean 2 Rocket 3.2 22:24:29 68° NE 22:24:29 68° NE 22:28:31 10° NNE
Cosmos 304 Rocket 4.3 22:20:41 10° NW 22:25:13 45° WSW 22:25:28 44° WSW
Cosmos 968 Rocket 4.3 22:21:33 10° NNW 22:26:27 40° ENE 22:27:16 37° E
Cosmos 1190 Rocket 3.8 22:21:43 10° NNW 22:27:02 88° WSW 22:27:28 76° SSE
Cosmos 1455 Rocket 4.2 22:28:48 34° ENE 22:28:48 34° ENE 22:31:54 10° NNE
Cosmos 2100 Rocket 3.9 22:26:44 54° S 22:28:18 88° WNW 22:34:33 10° N
Tsikada Rocket 4.3 22:24:56 10° N 22:31:05 53° ENE 22:32:10 47° ESE
Cosmos 2061 Rocket 4.5 22:35:46 42° E 22:36:13 42° E 22:42:00 10° NNE
Cosmos 972 Rocket 4.5 22:35:51 59° SE 22:36:37 64° ESE 22:43:21 10° NNE
Cosmos 2360 4.0 22:35:52 10° NNW 22:41:35 79° WSW 22:42:06 72° S
Cosmos 1656 3.6 22:38:39 10° NNW 22:44:05 67° WSW 22:44:20 66° SW
Cosmos 332 Rocket 3.8 22:45:35 10° NNW 22:50:07 76° NNE 22:50:07 76° NNE
ATLAS 5 CENTAUR R/B 2.6 22:47:10 10° NW 22:50:10 39° W 22:50:10 39° W
ATLAS 3B R/B 3.6 22:43:33 10° NW 22:51:14 52° NE 22:55:41 25° E
Cosmos 1864 Rocket 4.5 22:52:25 60° SSW 22:53:40 83° W 23:00:04 10° N
Cosmos 1420 Rocket 4.2 22:54:22 56° WSW 22:55:10 65° WNW 23:00:28 10° NNE
Cosmos 1954 Rocket 4.2 22:52:12 10° NNW 22:57:15 60° WSW 22:57:15 60° WSW
Aureole 3 Rocket 4.1 22:58:44 46° E 22:58:44 46° E 23:04:44 10° NNE
Cosmos 1833 Rocket 3.1 23:01:17 47° E 23:01:17 47° E 23:05:57 10° NE
Cosmos 676 Rocket 4.0 22:55:46 10° NNW 23:00:56 75° W 23:00:56 75° W
Cosmos 2082 Rocket 4.5 23:02:51 11° E 23:02:51 11° E 23:03:49 10° ENE
ALOS 2 3.1 23:03:31 58° NNE 23:03:31 58° NNE 23:07:13 10° N
Sich 1 Rocket 4.1 23:03:46 53° NW 23:03:46 53° NW 23:07:40 10° N
BREEZE-M R/B 4.3 22:54:02 10° W 23:03:36 87° N 23:09:16 10° E
SL-08 R/B 4.3 23:03:25 71° S 23:04:10 87° E 23:10:27 10° N
Cosmos 1818 4.0 22:58:59 10° NW 23:03:51 49° WSW 23:03:51 49° WSW
Spot 4 3.9 23:08:14 74° NNW 23:08:14 74° NNW 23:12:34 10° NNW
ARIANE 5 R/B 3.1 23:10:04 59° NNW 23:10:04 59° NNW 23:13:39 10° NNW
Meteor 2-12 Rocket 4.2 23:03:22 10° NNW 23:09:27 84° W 23:10:02 73° SSW
CZ-2C R/B 4.3 23:05:06 10° NNE 23:09:16 31° E 23:09:16 31° E
Cosmos 1725 Rocket 4.1 23:08:51 57° SW 23:10:05 71° WNW 23:16:24 10° N
DEBRIS 4.1 23:14:39 51° WSW 23:16:06 81° SSE 23:31:31 10° E
Cosmos 2228 3.9 23:18:31 44° NNE 23:18:31 44° NNE 23:21:26 10° NNE
ARIANE 6 FM1 Upper Stage 3.9 23:13:31 10° NW 23:16:01 37° NW 23:16:01 37° NW
USA 229 DEB 4.0 23:10:13 10° NW 23:17:38 78° NE 23:20:33 44° ESE
USA 229 4.0 23:10:16 10° NW 23:17:41 77° NE 23:20:40 43° ESE
SJ 16-02 3.3 23:14:44 10° NW 23:17:01 19° W 23:17:01 19° W
Cosmos 2233 Rocket 3.9 23:18:32 70° SSW 23:19:19 85° W 23:25:37 10° N
Cosmos 1850 Rocket 4.1 23:15:01 10° NNW 23:20:06 67° ENE 23:20:06 67° ENE
Cosmos 2056 Rocket 3.6 23:20:45 67° W 23:21:05 70° WNW 23:26:31 10° NNE
ATLAS 2AS CENTAUR R/B 2.5 23:25:29 67° SSE 23:26:06 71° SE 23:32:54 10° NE
Cosmos 1331 Rocket 4.4 23:27:28 52° ENE 23:27:28 52° ENE 23:31:51 10° NNE
Cosmos 1624 Rocket 4.2 23:28:33 61° WNW 23:28:45 62° WNW 23:33:54 10° NNE
CZ-2C R/B 3.2 23:29:07 48° E 23:29:39 49° ENE 23:34:51 10° N
Cosmos 292 Rocket 4.1 23:25:42 10° NNW 23:29:43 61° NW 23:29:43 61° NW
SeaSat 1 3.4 23:36:18 38° W 23:36:18 38° W 23:40:02 10° NW
Cosmos 1626 Rocket 4.3 23:32:43 10° N 23:35:57 50° N 23:35:57 50° N
Nadezhda 4 Rocket 4.3 23:36:10 10° N 23:42:10 51° ENE 23:43:04 48° ESE
ACS3 Solar Sail 3.4 23:39:24 10° NE 23:43:42 20° E 23:44:42 19° E
Cosmos 1110 Rocket 4.0 23:44:35 74° NE 23:44:35 74° NE 23:49:28 10° NNE
USA 234 4.1 23:39:26 10° ENE 23:45:39 48° N 23:51:53 10° WNW
Cosmos 1697 Rocket 2.9 23:41:58 10° NW 23:47:06 60° W 23:47:06 60° W
Cosmos 2151 3.9 23:49:43 10° N 23:52:40 45° N 23:52:40 45° N
